KA2FNK Weather Reports


Display with metric or nautical units.
time (UTC)temp
F
wind
direction
speed
MPH
gust
MPH
rain 1hr
in
rain 24hr
in
rain mn
in
humidity
%
barometer
mb
20260510031050 68 8 0.0 2.0 0.00 0.01 0.01 54 1011.8
20260510030548 68 331 0.0 5.0 0.00 0.01 0.01 52 1011.9
20260510030047 69 1 3.0 4.0 0.00 0.01 0.01 51 1011.9
20260510025546 69 333 0.0 0.0 0.00 0.01 0.01 50 1012.0
20260510025045 69 333 0.0 0.0 0.00 0.01 0.01 50 1011.7
20260510024544 69 333 0.0 0.0 0.00 0.01 0.01 49 1011.7
20260510024043 69 333 0.0 0.0 0.00 0.01 0.01 49 1011.4
20260510023543 69 333 0.0 0.0 0.00 0.01 0.01 50 1011.2
20260510023041 69 333 0.0 0.0 0.00 0.01 0.01 50 1011.0
20260510022541 69 333 0.0 0.0 0.00 0.01 0.01 49 1010.9
20260510022039 69 333 0.0 0.0 0.00 0.01 0.01 49 1010.8
20260510021538 69 333 0.0 1.0 0.00 0.01 0.01 49 1010.6
20260510021037 69 333 0.0 0.0 0.00 0.01 0.01 49 1010.5
20260510020537 70 333 0.0 1.0 0.00 0.01 0.01 48 1010.4
20260510020035 70 8 0.0 8.0 0.00 0.01 0.01 48 1010.3
20260510015534 70 14 1.0 6.0 0.00 0.01 0.01 48 1010.1
20260510015033 70 26 1.0 9.0 0.00 0.01 0.01 48 1010.1
20260510014532 70 16 0.0 3.0 0.00 0.01 0.01 48 1010.2
20260510014031 70 358 0.0 3.0 0.00 0.01 0.01 48 1010.2
20260510013530 70 5 1.0 9.0 0.00 0.01 0.01 47 1010.1
20260510013030 70 12 2.0 5.0 0.00 0.01 0.01 47 1010.0
20260510012529 70 340 2.0 8.0 0.00 0.01 0.01 47 1010.0
20260510012027 71 337 1.0 3.0 0.00 0.01 0.01 47 1009.9
20260510011527 71 334 0.0 5.0 0.00 0.01 0.01 47 1009.7
20260510011330 71 347 3.0 11.0 0.00 0.01 0.01 46 1009.7
20260510011025 71 347 3.0 11.0 0.00 0.01 0.01 46 1009.7
20260510010524 71 333 4.0 9.0 0.00 0.01 0.01 47 1009.6
20260510010023 71 7 0.0 0.0 0.00 0.01 0.01 46 1009.3
20260510005523 71 7 0.0 0.0 0.00 0.01 0.01 46 1009.4
20260510005022 72 7 0.0 4.0 0.00 0.01 0.01 46 1009.3
20260510004521 72 348 0.0 4.0 0.00 0.01 0.01 46 1009.3
20260510004019 72 4 0.0 3.0 0.00 0.01 0.01 46 1009.3
20260510003519 72 19 3.0 3.0 0.00 0.01 0.01 46 1009.0
20260510003017 72 5 0.0 8.0 0.00 0.01 0.01 45 1009.1
20260510002516 72 334 7.0 11.0 0.00 0.01 0.01 44 1009.0
20260510002015 73 26 4.0 7.0 0.00 0.01 0.01 44 1009.0
20260510001514 73 12 0.0 0.0 0.00 0.01 0.01 44 1008.9
20260510001014 73 348 1.0 7.0 0.00 0.01 0.01 44 1008.9
20260510000512 73 336 0.0 10.0 0.00 0.01 0.01 43 1008.9
20260510000011 74 8 1.0 7.0 0.00 0.01 0.01 42 1008.8
20260509235510 74 11 2.0 2.0 0.00 0.01 0.01 42 1008.7
20260509235009 74 340 0.0 6.0 0.00 0.01 0.01 42 1008.7
20260509234508 75 334 0.0 6.0 0.00 0.01 0.01 41 1008.6
20260509234007 75 338 1.0 4.0 0.00 0.01 0.01 40 1008.4
20260509233506 75 337 2.0 5.0 0.00 0.01 0.01 41 1008.5
20260509233005 75 358 1.0 5.0 0.00 0.01 0.01 40 1008.5
20260509232504 75 12 1.0 9.0 0.00 0.01 0.01 39 1008.5
20260509232132 75 9 2.0 12.0 0.00 0.01 0.01 39 1008.5
20260509232003 75 9 2.0 12.0 0.00 0.01 0.01 39 1008.5
20260509231503 76 358 5.0 10.0 0.00 0.01 0.01 37 1008.5
20260509231001 76 348 2.0 8.0 0.00 0.01 0.01 37 1008.4
20260509230546 77 1 9.0 11.0 0.00 0.01 0.01 35 1008.3
20260509230500 77 1 9.0 11.0 0.00 0.01 0.01 35 1008.3
20260509225959 79 7 10.0 10.0 0.00 0.01 0.01 31 1008.1
20260509225458 79 324 2.0 3.0 0.00 0.01 0.01 29 1007.8
20260509224957 79 292 2.0 4.0 0.00 0.01 0.01 28 1007.8
20260509224456 79 267 0.0 7.0 0.00 0.01 0.01 28 1007.6
20260509223955 80 315 1.0 9.0 0.00 0.01 0.01 27 1007.6
20260509223455 80 258 3.0 13.0 0.00 0.01 0.01 26 1007.5
20260509222954 81 133 1.0 8.0 0.00 0.01 0.01 30 1007.4
20260509222452 81 253 0.0 5.0 0.00 0.01 0.01 28 1007.4
20260509221951 81 264 4.0 5.0 0.00 0.01 0.01 28 1007.3
20260509221451 82 285 2.0 10.0 0.00 0.01 0.01 27 1007.3
20260509220950 82 255 3.0 11.0 0.00 0.01 0.01 24 1007.3
20260509220449 82 267 2.0 10.0 0.00 0.01 0.01 26 1007.3
20260509215947 83 227 5.0 8.0 0.00 0.01 0.01 25 1007.4
20260509215446 83 275 4.0 7.0 0.00 0.01 0.01 26 1007.3
20260509214946 83 264 0.0 11.0 0.00 0.01 0.01 28 1007.3
20260509214444 83 282 5.0 8.0 0.00 0.01 0.01 27 1007.3
20260509213943 83 265 7.0 9.0 0.00 0.01 0.01 27 1007.3
20260509213441 83 315 5.0 8.0 0.00 0.01 0.01 26 1007.3
20260509212941 83 119 2.0 5.0 0.00 0.01 0.01 29 1007.4
20260509212440 83 239 5.0 7.0 0.00 0.01 0.01 25 1007.4
20260509211939 83 222 0.0 6.0 0.00 0.01 0.01 25 1007.5
20260509211437 83 226 5.0 11.0 0.00 0.01 0.01 26 1007.5
20260509210936 83 271 6.0 10.0 0.00 0.01 0.01 26 1007.5
20260509210435 83 348 6.0 12.0 0.00 0.01 0.01 26 1007.6
20260509205934 83 180 5.0 14.0 0.00 0.02 0.01 27 1007.6
20260509205433 82 309 0.0 5.0 0.00 0.02 0.01 29 1007.6
20260509204932 82 299 4.0 7.0 0.00 0.02 0.01 30 1007.6
20260509204431 82 195 5.0 12.0 0.00 0.02 0.01 29 1007.7
20260509203931 82 194 3.0 7.0 0.00 0.02 0.01 30 1007.7
20260509203430 82 284 1.0 9.0 0.00 0.02 0.01 28 1007.8
20260509202927 81 250 1.0 8.0 0.00 0.02 0.01 32 1007.9
20260509202426 82 305 1.0 9.0 0.00 0.02 0.01 34 1008.0
20260509201925 81 217 4.0 10.0 0.00 0.02 0.01 34 1008.0
20260509201424 81 209 1.0 12.0 0.00 0.02 0.01 31 1008.1
20260509200924 81 230 2.0 10.0 0.00 0.02 0.01 33 1008.2
20260509200422 81 288 4.0 4.0 0.00 0.02 0.01 35 1008.2
20260509195921 81 312 7.0 7.0 0.00 0.04 0.01 32 1008.3
20260509195420 81 239 2.0 5.0 0.00 0.04 0.01 34 1008.3
20260509194920 81 331 0.0 10.0 0.00 0.04 0.01 35 1008.4
20260509194418 80 278 4.0 13.0 0.00 0.04 0.01 32 1008.4
20260509193918 80 282 4.0 7.0 0.00 0.04 0.01 32 1008.4
20260509193416 80 316 4.0 11.0 0.00 0.04 0.01 33 1008.5
20260509192914 80 226 7.0 9.0 0.00 0.04 0.01 35 1008.4
20260509192413 80 230 5.0 8.0 0.00 0.04 0.01 33 1008.5
20260509191912 80 291 3.0 10.0 0.00 0.04 0.01 32 1008.4
20260509191412 80 291 5.0 10.0 0.00 0.04 0.01 32 1008.4
20260509190911 80 188 7.0 11.0 0.00 0.04 0.01 34 1008.6
20260509190409 79 251 3.0 9.0 0.00 0.04 0.01 34 1008.6
20260509185909 79 203 3.0 9.0 0.00 0.04 0.01 37 1008.6
20260509185407 79 282 0.0 5.0 0.00 0.04 0.01 38 1008.6
20260509184907 79 140 5.0 9.0 0.00 0.04 0.01 38 1008.6
20260509184405 79 268 0.0 6.0 0.00 0.04 0.01 42 1008.6
20260509183905 78 210 0.0 3.0 0.00 0.04 0.01 41 1008.8
20260509183404 78 278 0.0 9.0 0.00 0.04 0.01 42 1008.8
20260509182903 78 323 3.0 3.0 0.00 0.04 0.01 39 1008.8
20260509182402 78 268 0.0 8.0 0.00 0.04 0.01 39 1008.8
20260509181900 78 322 3.0 8.0 0.00 0.04 0.01 41 1008.9
20260509181359 78 277 0.0 4.0 0.00 0.04 0.01 41 1008.9
20260509180856 77 229 0.0 3.0 0.00 0.04 0.01 41 1009.0
20260509180355 77 225 1.0 7.0 0.00 0.04 0.01 42 1009.1
20260509175855 77 292 6.0 6.0 0.00 0.04 0.01 42 1009.1
20260509175352 77 327 0.0 0.0 0.00 0.04 0.01 44 1009.1
20260509174851 77 327 0.0 5.0 0.00 0.04 0.01 44 1009.1
20260509174351 77 243 0.0 7.0 0.00 0.04 0.01 43 1009.1
20260509173850 77 257 1.0 5.0 0.00 0.04 0.01 43 1009.3
20260509173348 77 251 0.0 4.0 0.00 0.04 0.01 44 1009.3
20260509172847 76 202 1.0 3.0 0.00 0.04 0.01 48 1009.4
20260509172347 75 270 0.0 2.0 0.00 0.04 0.01 46 1009.4
20260509171845 75 258 0.0 4.0 0.00 0.04 0.01 47 1009.4
20260509171343 75 322 0.0 4.0 0.00 0.04 0.01 46 1009.4
20260509170843 75 232 0.0 7.0 0.00 0.04 0.01 46 1009.6
20260509170340 75 203 0.0 5.0 0.00 0.04 0.01 47 1009.6
20260509165840 74 188 0.0 0.0 0.00 0.04 0.01 48 1009.6
20260509165338 74 188 0.0 5.0 0.00 0.04 0.01 49 1009.6
20260509164838 73 260 0.0 5.0 0.00 0.04 0.01 48 1009.7
20260509164336 73 223 2.0 5.0 0.00 0.04 0.01 47 1009.6
20260509163836 73 246 0.0 6.0 0.00 0.04 0.01 49 1009.6
20260509163334 73 216 3.0 6.0 0.00 0.04 0.01 47 1009.7
20260509162833 73 243 0.0 4.0 0.00 0.04 0.01 52 1009.6
20260509162332 73 209 0.0 0.0 0.00 0.04 0.01 52 1009.6
20260509161831 72 209 0.0 5.0 0.00 0.04 0.01 53 1009.4
20260509161330 71 202 0.0 5.0 0.00 0.04 0.01 55 1009.4
20260509160829 71 284 0.0 3.0 0.00 0.04 0.01 55 1009.4
20260509160329 71 233 0.0 7.0 0.00 0.04 0.01 51 1009.4
20260509155828 71 270 0.0 5.0 0.00 0.04 0.01 53 1009.4
20260509155327 70 275 2.0 8.0 0.00 0.04 0.01 52 1009.4
20260509154826 70 236 0.0 1.0 0.00 0.04 0.01 57 1009.4
20260509154324 69 246 0.0 3.0 0.00 0.04 0.01 57 1009.3
20260509153824 69 209 2.0 7.0 0.00 0.04 0.01 55 1009.4
20260509153323 69 226 0.0 1.0 0.00 0.04 0.01 57 1009.4
20260509152822 68 226 1.0 4.0 0.00 0.04 0.01 56 1009.4
20260509152321 68 271 2.0 6.0 0.00 0.04 0.01 58 1009.6
20260509151819 68 241 3.0 7.0 0.00 0.04 0.01 61 1009.6
20260509151319 67 225 0.0 5.0 0.00 0.04 0.01 62 1009.3
20260509150817 67 226 0.0 7.0 0.00 0.04 0.01 60 1009.3
20260509150317 67 203 2.0 7.0 0.00 0.04 0.01 58 1009.3
20260509145816 66 257 0.0 5.0 0.00 0.04 0.01 59 1009.3
20260509145314 66 248 2.0 8.0 0.00 0.04 0.01 60 1009.3
20260509144814 66 248 0.0 6.0 0.00 0.04 0.01 60 1009.3
20260509144313 66 258 0.0 5.0 0.00 0.04 0.01 62 1009.4
20260509143812 66 251 0.0 8.0 0.00 0.04 0.01 62 1009.3
20260509143310 65 168 1.0 1.0 0.00 0.04 0.01 67 1009.2
20260509142809 65 264 0.0 2.0 0.00 0.04 0.01 66 1009.3
20260509142309 64 248 0.0 5.0 0.00 0.04 0.01 66 1009.3
20260509141807 64 264 4.0 7.0 0.00 0.04 0.01 64 1009.3
20260509141307 64 286 1.0 6.0 0.00 0.04 0.01 64 1009.2
20260509140806 64 167 0.0 5.0 0.00 0.04 0.01 67 1009.3
20260509140305 63 254 0.0 5.0 0.00 0.04 0.01 68 1009.1
20260509135803 63 285 2.0 9.0 0.00 0.04 0.01 68 1009.1
20260509135305 63 295 0.0 5.0 0.00 0.04 0.01 70 1009.2
20260509134801 62 288 0.0 7.0 0.00 0.04 0.01 70 1009.2
20260509134300 62 191 1.0 13.0 0.00 0.04 0.01 69 1009.2
20260509133759 62 278 0.0 5.0 0.00 0.04 0.01 71 1009.3
20260509133258 62 260 0.0 4.0 0.00 0.04 0.01 71 1009.2
20260509132758 61 260 3.0 6.0 0.00 0.04 0.01 71 1009.2
20260509132256 61 244 0.0 3.0 0.00 0.04 0.01 74 1009.2
20260509131755 60 222 0.0 5.0 0.00 0.04 0.01 75 1009.2
20260509131254 60 281 0.0 3.0 0.00 0.04 0.01 75 1009.2
20260509130753 60 272 0.0 6.0 0.00 0.04 0.01 79 1009.1
20260509130252 59 253 0.0 0.0 0.00 0.04 0.01 79 1009.1
20260509125751 59 253 0.0 0.0 0.00 0.04 0.01 82 1009.1
20260509125250 58 253 0.0 6.0 0.00 0.04 0.01 82 1009.0
20260509124749 58 215 0.0 0.0 0.00 0.04 0.01 82 1008.8
20260509124248 58 215 0.0 0.0 0.00 0.04 0.01 85 1008.7
20260509123747 57 215 0.0 0.0 0.00 0.04 0.01 87 1008.6
20260509123246 57 215 0.0 1.0 0.00 0.04 0.01 88 1008.7
20260509122745 57 215 0.0 0.0 0.00 0.04 0.01 89 1008.6
20260509122244 56 215 0.0 0.0 0.00 0.04 0.01 90 1008.6
20260509121852 56 215 0.0 0.0 0.00 0.04 0.01 90 1008.6
20260509121743 56 215 0.0 0.0 0.00 0.04 0.01 90 1008.6
20260509121242 56 215 0.0 0.0 0.00 0.04 0.01 91 1008.6
20260509120741 56 215 0.0 0.0 0.00 0.04 0.01 91 1008.6
20260509120240 55 215 0.0 0.0 0.00 0.04 0.01 92 1008.6
20260509115739 55 215 0.0 0.0 0.00 0.04 0.01 92 1008.5
20260509115238 55 215 0.0 0.0 0.00 0.04 0.01 92 1008.4
20260509114737 55 215 0.0 0.0 0.00 0.04 0.01 92 1008.4
20260509114236 55 215 0.0 0.0 0.00 0.04 0.01 92 1008.3
20260509113735 55 215 0.0 0.0 0.00 0.04 0.01 92 1008.2
20260509113234 55 215 0.0 5.0 0.00 0.04 0.01 92 1008.2
20260509112733 55 244 0.0 1.0 0.00 0.04 0.01 92 1008.1
20260509112232 55 234 0.0 3.0 0.00 0.04 0.01 92 1008.0
20260509111731 55 212 0.0 0.0 0.00 0.04 0.01 93 1008.1
20260509111230 55 212 0.0 0.0 0.00 0.04 0.01 92 1007.9
20260509110729 55 212 0.0 1.0 0.00 0.04 0.01 93 1007.9
20260509110228 55 234 2.0 3.0 0.00 0.04 0.01 93 1007.9
20260509105727 55 241 2.0 4.0 0.00 0.04 0.01 93 1007.8
20260509105226 55 208 3.0 4.0 0.00 0.04 0.01 95 1007.8
20260509104725 55 261 2.0 5.0 0.00 0.04 0.01 95 1007.8
20260509104224 55 260 2.0 5.0 0.00 0.04 0.01 95 1007.8
20260509103809 55 226 0.0 3.0 0.00 0.04 0.01 95 1007.8
20260509103723 55 226 0.0 3.0 0.00 0.04 0.01 95 1007.8
20260509103222 55 220 1.0 4.0 0.00 0.04 0.01 95 1007.8
20260509102755 55 244 1.0 4.0 0.00 0.04 0.01 95 1007.8
20260509102721 55 244 1.0 4.0 0.00 0.04 0.01 95 1007.8
20260509102220 55 185 1.0 4.0 0.00 0.04 0.01 96 1007.7
20260509101753 55 247 2.0 4.0 0.00 0.04 0.01 96 1007.8
20260509101719 55 247 2.0 4.0 0.00 0.04 0.01 96 1007.8
20260509101218 56 201 0.0 4.0 0.00 0.04 0.01 96 1007.8
20260509101040 56 251 1.0 4.0 0.00 0.04 0.01 96 1007.8
20260509100717 56 251 1.0 4.0 0.00 0.04 0.01 96 1007.8
20260509100216 56 227 0.0 5.0 0.00 0.04 0.01 96 1007.9
20260509095715 56 225 1.0 3.0 0.01 0.04 0.01 96 1008.0
20260509095214 56 227 1.0 3.0 0.01 0.04 0.01 96 1008.0
20260509094813 56 261 3.0 4.0 0.01 0.04 0.01 97 1007.9
20260509094713 56 261 3.0 4.0 0.01 0.04 0.01 97 1007.9
20260509094212 56 250 0.0 3.0 0.01 0.04 0.01 97 1008.1
20260509093711 56 232 3.0 4.0 0.01 0.04 0.01 97 1008.0
20260509093210 56 251 0.0 4.0 0.01 0.04 0.01 97 1007.9
20260509092709 56 220 1.0 3.0 0.01 0.04 0.01 97 1008.0
20260509092242 56 220 3.0 5.0 0.01 0.04 0.01 97 1008.0
20260509092208 56 220 3.0 5.0 0.01 0.04 0.01 97 1008.0
20260509091707 56 247 3.0 4.0 0.01 0.04 0.01 98 1007.9
20260509091206 56 241 1.0 4.0 0.01 0.04 0.01 98 1007.8
20260509090705 56 246 2.0 4.0 0.01 0.04 0.01 98 1007.9
20260509090238 56 248 1.0 3.0 0.00 0.03 0.00 98 1007.9
20260509090204 56 248 1.0 3.0 0.00 0.03 0.00 98 1007.9
20260509085738 56 213 0.0 8.0 0.00 0.03 0.00 98 1007.8
20260509085703 56 213 0.0 8.0 0.00 0.03 0.00 98 1007.8
20260509085246 56 220 1.0 5.0 0.00 0.03 0.00 98 1007.8
20260509085202 56 220 1.0 5.0 0.00 0.03 0.00 98 1007.8
20260509084701 56 267 2.0 5.0 0.00 0.03 0.00 98 1007.8
20260509084331 56 250 2.0 6.0 0.00 0.03 0.00 99 1007.7
20260509084244 56 250 2.0 6.0 0.00 0.03 0.00 99 1007.7
20260509084200 56 250 2.0 6.0 0.00 0.03 0.00 99 1007.7
20260509083659 56 213 2.0 7.0 0.00 0.03 0.00 99 1007.7
20260509083158 56 277 3.0 4.0 0.00 0.03 0.00 99 1007.7
20260509082806 56 203 2.0 7.0 0.00 0.03 0.00 99 1007.8
20260509082727 56 203 2.0 7.0 0.00 0.03 0.00 99 1007.8
20260509082657 56 203 2.0 7.0 0.00 0.03 0.00 99 1007.8
20260509082227 56 230 5.0 6.0 0.00 0.03 0.00 99 1007.8
20260509082156 56 230 5.0 6.0 0.00 0.03 0.00 99 1007.8
20260509081830 56 202 2.0 6.0 0.00 0.03 0.00 99 1007.8
20260509081756 56 202 2.0 6.0 0.00 0.03 0.00 99 1007.8
20260509081655 56 202 2.0 6.0 0.00 0.03 0.00 99 1007.8
20260509081154 56 246 3.0 6.0 0.00 0.03 0.00 99 1007.8
20260509080653 56 261 1.0 5.0 0.00 0.03 0.00 100 1007.8
20260509080152 56 239 4.0 4.0 0.00 0.03 0.00 100 1007.8
20260509075651 56 194 1.0 7.0 0.00 0.03 0.00 100 1007.8
20260509075150 56 254 2.0 4.0 0.00 0.03 0.00 100 1007.8
20260509074728 56 262 3.0 6.0 0.00 0.03 0.00 100 1007.8
20260509074649 56 262 3.0 6.0 0.00 0.03 0.00 100 1007.8
20260509074148 55 227 2.0 6.0 0.00 0.03 0.00 99 1007.8
20260509073722 56 210 2.0 5.0 0.00 0.03 0.00 100 1007.9
20260509073647 56 210 2.0 5.0 0.00 0.03 0.00 100 1007.9
20260509073146 56 171 2.0 4.0 0.00 0.03 0.00 99 1007.8
20260509072645 56 187 1.0 5.0 0.00 0.03 0.00 99 1007.9
20260509072144 56 213 2.0 5.0 0.00 0.03 0.00 99 1007.9
20260509071643 56 215 3.0 5.0 0.00 0.03 0.00 99 1008.0
20260509071142 56 198 1.0 8.0 0.00 0.03 0.00 99 1008.1
20260509070718 55 198 0.0 4.0 0.00 0.03 0.00 99 1008.1
20260509070641 55 198 0.0 4.0 0.00 0.03 0.00 99 1008.1
20260509070140 55 213 3.0 4.0 0.00 0.03 0.00 99 1008.1
20260509065711 55 206 1.0 6.0 0.00 0.03 0.00 99 1008.1
20260509065639 55 206 1.0 6.0 0.00 0.03 0.00 99 1008.1
20260509065210 55 203 0.0 3.0 0.00 0.03 0.00 99 1008.2
20260509065138 55 203 0.0 3.0 0.00 0.03 0.00 99 1008.2
20260509064715 55 199 0.0 5.0 0.00 0.03 0.00 99 1008.3
20260509064637 55 199 0.0 5.0 0.00 0.03 0.00 99 1008.3
20260509064209 55 233 2.0 5.0 0.00 0.03 0.00 99 1008.3
20260509064136 55 233 2.0 5.0 0.00 0.03 0.00 99 1008.3
20260509063635 55 208 0.0 4.0 0.00 0.03 0.00 98 1008.5
20260509063205 55 229 3.0 5.0 0.00 0.03 0.00 98 1008.4
20260509063134 55 229 3.0 5.0 0.00 0.03 0.00 98 1008.4
20260509062706 55 184 1.0 6.0 0.00 0.03 0.00 98 1008.5
20260509062633 55 184 1.0 6.0 0.00 0.03 0.00 98 1008.5
20260509062132 55 191 0.0 4.0 0.00 0.03 0.00 98 1008.5
20260509061631 54 202 1.0 3.0 0.00 0.03 0.00 98 1008.5
20260509061130 54 209 1.0 5.0 0.00 0.03 0.00 98 1008.5
20260509060708 54 161 1.0 3.0 0.00 0.03 0.00 98 1008.5
20260509060629 54 161 1.0 3.0 0.00 0.03 0.00 98 1008.5
20260509060128 54 215 1.0 4.0 0.00 0.03 0.00 98 1008.5
20260509055627 54 251 2.0 4.0 0.00 0.03 0.00 98 1008.5
20260509055126 54 227 2.0 3.0 0.00 0.03 0.00 98 1008.5
20260509054625 54 209 1.0 3.0 0.00 0.03 0.00 98 1008.6
20260509054124 54 212 1.0 4.0 0.00 0.03 0.00 98 1008.5
20260509053623 54 191 5.0 5.0 0.00 0.03 0.00 98 1008.6
20260509053122 54 210 1.0 4.0 0.00 0.03 0.00 98 1008.6
20260509052621 54 210 1.0 4.0 0.00 0.03 0.00 98 1008.6
20260509052120 54 189 2.0 3.0 0.00 0.03 0.00 98 1008.6
20260509051619 54 206 1.0 2.0 0.00 0.03 0.00 98 1008.6
20260509051118 54 209 1.0 2.0 0.00 0.03 0.00 98 1008.6
20260509050618 55 177 0.0 1.0 0.00 0.03 0.00 98 1008.7
20260509050200 55 201 0.0 1.0 0.00 0.03 0.00 98 1008.6
20260509050116 55 201 0.0 1.0 0.00 0.03 0.00 98 1008.6
20260509045615 55 202 0.0 0.0 0.00 0.03 0.03 98 1008.6
20260509045146 55 201 1.0 1.0 0.00 0.03 0.03 98 1008.6
20260509045114 55 201 1.0 1.0 0.00 0.03 0.03 98 1008.6
20260509044613 55 205 0.0 1.0 0.00 0.03 0.03 98 1008.6
20260509044112 55 192 0.0 3.0 0.00 0.03 0.03 98 1008.6
20260509043611 55 199 1.0 3.0 0.00 0.03 0.03 98 1008.6
20260509043110 55 232 3.0 4.0 0.00 0.03 0.03 98 1008.6
20260509042609 55 213 2.0 2.0 0.00 0.03 0.03 98 1008.6
20260509042108 55 232 1.0 1.0 0.00 0.03 0.03 98 1008.7
20260509041726 55 226 1.0 1.0 0.00 0.03 0.03 97 1008.7
20260509041607 55 226 1.0 1.0 0.00 0.03 0.03 97 1008.7
20260509041106 55 198 0.0 1.0 0.00 0.03 0.03 98 1008.7
20260509040605 55 194 1.0 3.0 0.00 0.03 0.03 98 1008.7
20260509040104 56 215 2.0 2.0 0.00 0.03 0.03 98 1008.6
20260509035603 56 198 1.0 3.0 0.00 0.03 0.03 97 1008.6
20260509035102 56 220 0.0 2.0 0.00 0.03 0.03 97 1008.8
20260509034601 56 217 0.0 1.0 0.00 0.03 0.03 97 1008.8
20260509034100 56 213 1.0 3.0 0.00 0.03 0.03 97 1008.8
20260509033634 56 196 0.0 2.0 0.00 0.03 0.03 97 1008.8
20260509033559 56 196 0.0 2.0 0.00 0.03 0.03 97 1008.8
20260509033058 56 220 2.0 4.0 0.00 0.03 0.03 98 1008.7
20260509032557 56 220 1.0 3.0 0.00 0.03 0.03 97 1008.8
20260509032056 56 192 1.0 5.0 0.00 0.03 0.03 97 1008.7
20260509031555 57 202 0.0 0.0 0.00 0.03 0.03 97 1008.8